Regional Weather Roundup
Issued by NWS

Home | Current Version | Previous Version | Text Only | Print | Product List | Glossary On
Versions: 1 2 3 4 5 6 7 8 9 10 11 12 13 14 15 16 17 18 19 20 21 22 23 24 25 26 27 28 29 30 31 32 33 34 35 36 37 38 39 40 41 42 43 44 45 46 47 48 49 50
000
ASUS45 KSLC 301710
RWRUT

UTAH REGIONAL WEATHER ROUNDUP
NATIONAL WEATHER SERVICE SALT LAKE CITY UT
1100 AM MDT WED JUL 30 2014

UTZ001>011-023>025-301800-

NORTHERN UTAH

CITY           SKY/WX    TMP DP  RH WIND       PRES   REMARKS
HILL AFB       CLOUDY    69  58  68 SE9       30.24S
LOGAN          CLOUDY    67  60  78 NE7       30.25S
OGDEN          CLOUDY    70  60  70 SW6       30.22R
PROVO AIRPORT  PTSUNNY   73  59  60 SW5       30.23S
SALT LAKE CITY LGT RAIN  69  62  78 NW8       30.20S
VERNAL         CLOUDY    68  57  68 CALM      30.25F
WENDOVER         N/A     75  54  46 E6        30.22S
HEBER CITY     CLOUDY    64  55  72 N10       30.28S
WEST JORDAN    PTSUNNY   73  64  73 N7        30.23S

$$

UTZ012>022-026-027-301800-

SOUTHERN UTAH

CITY           SKY/WX    TMP DP  RH WIND       PRES   REMARKS
BRYCE CANYON     N/A     69  50  50 NW8       30.38F
CEDAR CITY       N/A     72  56  57 N7        30.26S
MILFORD          N/A     77  56  48 N8        30.23F
MOAB/CYNLANDS    N/A     74  57  55 VRB5      30.17F
PRICE          PTSUNNY   73  53  49 S5        30.25F
ST GEORGE        N/A     90  55  31 N7        30.07S
KANAB            N/A     82  50  32 CALM      30.23S

$$

REGIONAL REPORTS     COLORADO/ARIZONA

CITY           SKY/WX    TMP DP  RH WIND       PRES   REMARKS
CRAIG, CO      CLOUDY    59  58  96 W8        30.31S
GRAND JUNCTION   N/A     72  57  59 NW5       30.21F
RIFLE          PTSUNNY   68  55  63 N3        30.25F
MONTROSE         N/A     70  55  59 N5        30.27S
CORTEZ           N/A     80  49  33 S6        30.24S
PAGE, AZ         N/A     84  52  33 VRB5      30.15S
GRAND CANYON   PTSUNNY   78  47  33 W5        30.32S
KINGMAN          N/A     90  49  24 CALM      30.08S
FLAGSTAFF      PTSUNNY   74  47  38 VRB6      30.36S

$$

REGIONAL REPORTS    NEVADA/IDAHO/WYOMING

CITY           SKY/WX    TMP DP  RH WIND       PRES   REMARKS
LAS VEGAS, NV    N/A     94  54  25 VRB6      29.96S HX  92
ELY              N/A     68  53  58 CALM      30.33F
ELKO             N/A     74  46  36 CALM      30.28S
POCATELLO, ID    N/A     74  55  51 CALM      30.25F
BURLEY           N/A     74  53  48 VRB3      30.22S
EVANSTON, WY   LGT RAIN  56  54  93 NE9       30.38S FOG
ROCK SPRINGS   CLOUDY    61  51  70 E17       30.37S

$$



USA.gov is the U.S. government's official web portal to all federal, state and local government web resources and services.